Probability
0 0 0 0 0 0 0 0 0 0 1 2 3 2 1 1 1 0 0 0 0 0 0 0 0 0 0 0 0 0 0 0 0 0 0 0 0 0
0 0 0 0 0 0 0 0 0 0 0 1 2 2 1 0 0 0 0 0 0 0 0 0 0 0 0 0 0 0 0 0 0 0 0 0 0 0
0 0 0 0 0 0 0 0 0 0 0 0 1 1 0 0 0 0 1 0 0 0 0 0 0 0 0 0 0 0 0 0 0 0 0 0 0 0
0 0 0 0 0 0 0 0 0 0 0 0 0 0 0 0 0 0 0 0 0 0 0 0 0 0 0 0 0 0 0 0 0 0 0 0 0 0
0 0 0 0 0 0 0 0 0 0 0 0 0 0 0 0 0 0 0 0 0 0 0 0 0 0 0 0 0 0 0 0 0 0 0 0 0 0
0 0 0 0 0 0 0 0 0 0 0 0 0 0 0 0 0 0 0 1 1 1 0 0 0 0 0 0 0 0 0 0 0 0 0 0 0 0
0 0 0 0 0 0 0 0 0 0 0 0 0 0 0 0 0 0 0 2 2 1 0 0 0 0 1 1 0 0 0 0 0 0 0 0 0 0
0 0 0 0 0 0 0 0 0 0 0 0 0 0 0 0 0 0 0 2 2 2 0 0 0 0 1 1 0 0 0 0 0 0 0 0 0 0
0 0 0 0 0 0 0 0 0 0 0 0 0 0 0 0 0 0 1 2 2 1 0 0 0 0 1 1 0 0 0 0 0 0 0 0 0 0
0 0 0 0 0 0 0 0 0 0 0 0 0 0 0 0 0 0 2 3 2 1 0 0 0 0 0 0 0 0 0 0 0 0 0 0 0 0
0 0 0 0 0 0 0 0 0 0 0 0 0 0 0 0 0 0 1 2 2 1 0 0 0 0 0 0 0 0 0 0 0 0 0 0 0 0
0 0 0 0 0 0 0 0 0 0 0 0 0 0 0 0 0 0 0 1 1 0 0 0 0 0 0 0 0 0 0 0 0 0 0 0 0 0
0 0 0 0 0 0 0 0 0 0 0 0 0 0 0 0 0 0 0 0 0 0 0 0 0 0 0 0 0 0 0 0 0 0 0 0 0 0
0 0 0 0 0 0 0 0 0 0 0 0 0 0 0 0 0 0 0 0 0 0 0 0 0 0 0 0 0 0 0 0 0 0 0 0 0 0
0 0 0 0 0 0 0 0 0 0 0 0 0 0 0 0 0 0 0 0 0 0 0 0 0 0 0 0 0 0 0 0 0 0 0 0 0 0
0 0 0 0 0 0 0 0 0 0 0 0 0 0 0 0 0 0 0 0 0 0 0 0 0 0 0 0 0 0 0 0 0 0 0 0 0 0
0 0 0 0 0 0 0 0 0 0 0 0 0 0 0 0 0 0 0 0 0 0 0 0 0 0 0 0 0 0 0 0 0 0 0 0 0 0
0 0 1 1 1 1 0 0 0 0 0 0 0 0 0 0 0 0 0 0 0 0 0 0 0 0 0 0 0 0 0 0 0 0 0 0 0 0
0 0 1 2 3 2 1 0 0 0 0 0 0 0 0 0 0 0 0 0 0 0 0 0 0 0 0 0 0 0 0 0 0 0 0 0 0 0
0 0 0 2 4 4 4 2 1 0 0 0 0 0 0 0 0 0 0 0 0 0 0 0 0 0 0 0 0 0 0 0 0 0 0 0 0 0
0 0 0 2 4 6 6 5 2 1 0 0 0 0 0 0 0 0 0 0 0 0 0 0 0 0 0 0 0 0 0 0 0 0 0 0 0 0
0 0 0 2 5 6 6 5 4 2 1 0 0 0 0 0 0 0 0 0 0 0 0 0 0 0 0 0 0 0 0 0 0 0 0 0 0 0
0 0 0 2 5 6 4 3 3 3 2 1 0 0 0 0 0 0 0 0 0 0 0 0 0 0 0 0 0 0 0 0 0 0 0 0 0 0
Wind_Speed
2 2 2 1 1 1 1 1 1 2 2 3 2 1 1 2 1 2 4 5 4 4 5 5 5 5 4 4 4 4 3 4 5 6 7 8 9 10
1 2 2 1 1 1 1 1 2 1 1 2 2 1 1 2 1 2 3 5 5 4 4 4 5 4 4 4 4 3 3 3 4 4 5 5 6 7
1 1 1 2 1 1 0 1 1 1 1 2 2 2 2 2 2 2 2 2 4 4 4 4 4 4 4 4 4 4 4 4 4 4 4 4 5 5
2 1 1 0 1 1 1 1 0 1 1 2 3 2 2 2 2 2 2 2 2 5 4 4 4 4 4 4 4 4 3 3 3 3 3 4 4 4
3 2 2 1 1 0 1 1 1 1 1 2 2 2 1 1 2 2 3 2 2 4 5 5 4 4 4 3 3 3 3 2 2 2 2 2 3 3
4 3 3 3 2 1 1 1 1 2 2 2 2 2 2 1 1 2 2 2 2 2 2 3 5 5 5 4 4 3 3 2 2 1 1 1 1 2
5 5 3 2 3 2 2 2 2 2 2 2 2 2 2 2 2 2 2 2 2 1 2 2 3 3 4 6 5 4 3 3 2 2 1 1 1 2
6 6 5 6 6 5 3 3 3 3 3 3 3 3 3 3 2 2 2 3 3 2 2 2 2 2 2 3 6 5 5 4 4 3 2 1 1 2
7 6 5 5 6 7 8 8 6 4 4 4 4 3 3 3 4 4 3 2 1 2 2 2 3 2 3 5 6 5 5 5 5 4 4 3 3 3
9 8 8 8 7 7 7 7 6 6 6 6 5 3 3 3 3 3 2 3 2 2 3 2 3 2 3 5 7 6 6 5 5 5 4 3 3 4
11 10 10 10 7 8 8 8 7 6 4 2 2 3 4 2 1 3 4 4 4 4 3 2 2 2 3 4 6 7 6 5 5 5 4 4 5 7
9 10 10 11 8 11 11 9 9 7 7 7 6 5 5 5 4 5 4 4 4 3 4 3 2 2 3 3 4 5 5 6 4 3 3 3 6 6
9 9 8 13 11 13 12 10 8 6 7 7 6 6 6 5 6 5 4 3 3 2 3 3 2 2 2 2 3 2 1 1 2 3 4 2 2 5
9 8 7 13 14 14 12 9 6 6 6 6 6 6 6 5 5 5 4 3 1 0 2 3 2 2 3 3 3 2 2 1 2 3 2 2 3 3
9 7 6 10 12 12 12 11 10 8 8 7 7 7 6 6 5 4 5 4 4 2 1 2 2 2 3 3 3 2 2 2 2 3 3 3 3 3
10 7 8 8 9 8 10 11 10 9 9 8 8 7 6 6 6 6 5 5 5 4 3 2 2 2 3 3 3 3 3 2 2 3 3 4 4 4
9 8 8 9 10 10 10 10 10 10 9 8 8 7 7 7 6 6 5 6 6 5 5 3 3 2 2 3 4 4 3 3 3 3 4 5 5 5
9 10 10 11 11 11 11 11 11 10 10 9 9 8 8 8 7 6 6 6 6 5 5 4 4 4 4 3 2 4 3 3 3 3 5 6 6 5
11 11 11 11 11 11 11 11 11 11 10 10 9 9 9 8 8 7 7 6 6 5 5 4 4 5 5 5 5 3 4 3 4 4 5 6 7 6
11 12 11 11 11 11 11 11 10 10 10 10 10 10 9 9 8 8 8 8 7 6 6 5 5 4 4 3 2 3 5 4 4 5 6 6 7 7
10 11 11 10 10 11 11 11 11 11 11 11 10 11 10 9 9 8 8 8 7 7 7 5 3 2 2 2 4 4 4 6 4 5 7 7 7 7
9 10 10 10 10 10 10 10 11 11 12 11 11 11 10 10 10 10 9 9 8 7 6 5 5 5 5 5 5 5 4 4 7 11 11 9 7 6
9 9 9 9 10 9 10 12 14 12 11 11 11 11 11 10 9 9 9 8 8 7 7 6 5 5 5 5 5 5 6 6 5 6 6 11 17 17
Wind_Direction
353 350 339 23 324 337 327 287 260 194 158 149 147 135 154 117 137 177 138 123 144 153 156 158 158 160 167 168 172 180 193 201 204 209 215 225 234 237
320 323 341 2 16 352 330 306 294 266 161 140 130 129 106 142 107 111 111 143 148 152 156 158 160 159 157 162 164 175 189 202 210 211 217 226 238 243
248 290 342 351 339 351 314 289 283 273 174 136 132 131 146 126 120 114 124 148 130 129 150 155 155 157 163 167 171 177 186 196 204 205 209 223 235 242
279 264 269 18 299 325 303 266 281 292 227 158 150 142 132 109 111 108 104 95 105 106 127 149 155 154 154 163 166 169 176 190 198 207 220 233 241 248
268 269 262 240 248 190 242 237 224 178 211 187 155 134 154 142 126 112 103 90 94 115 123 129 126 133 138 145 153 151 152 165 185 207 224 239 249 258
246 249 258 252 254 229 221 223 221 194 190 198 172 169 165 169 190 164 139 128 122 113 100 110 120 125 121 118 118 120 123 127 138 158 196 236 259 272
236 234 234 264 354 315 283 244 214 215 202 200 192 190 185 188 196 189 170 156 141 158 168 154 158 155 146 135 117 101 100 100 105 107 88 14 324 306
241 233 216 203 202 208 234 270 288 251 228 207 207 207 201 194 189 207 198 196 170 152 212 156 177 152 133 101 87 96 95 92 85 77 67 46 356 327
249 237 225 213 212 211 197 205 218 239 269 266 231 219 211 197 201 206 206 221 204 133 220 178 169 154 134 98 96 98 95 89 83 75 58 35 9 339
242 241 233 225 213 221 215 212 213 202 211 232 243 232 220 195 208 222 201 194 188 172 222 213 176 165 145 128 114 104 98 88 77 65 50 26 351 317
236 234 234 232 199 201 225 223 219 206 177 190 11 54 71 74 213 201 196 203 196 174 189 222 185 181 173 155 134 131 118 103 85 70 52 25 341 297
233 230 224 235 200 189 219 224 224 216 197 183 189 187 193 179 206 228 216 221 209 180 163 211 195 206 192 164 161 166 158 142 137 120 79 32 349 308
235 229 220 199 206 200 220 231 223 221 210 205 199 194 196 192 190 207 220 236 233 203 152 200 210 219 233 186 186 192 214 205 199 178 161 124 13 331
241 237 223 186 197 202 211 219 190 198 218 210 206 201 197 195 192 189 187 194 238 249 160 211 229 236 243 239 224 196 213 259 290 298 298 171 198 190
245 242 224 184 192 202 209 199 189 205 211 210 210 205 199 192 179 172 170 166 156 136 150 216 232 235 249 256 261 254 259 259 280 291 299 305 304 294
239 224 201 196 209 215 193 195 209 213 210 211 209 202 188 180 181 178 176 175 170 160 155 170 213 228 237 242 253 260 263 267 269 281 294 294 291 287
225 221 214 204 205 209 207 203 203 204 206 211 205 195 187 185 182 182 184 187 196 186 172 174 179 191 238 258 245 245 251 254 264 284 286 284 280 279
224 224 219 214 211 208 206 204 203 204 202 202 201 194 189 188 181 178 185 193 199 192 180 174 181 193 206 198 247 256 252 259 273 278 279 282 283 285
226 229 223 218 214 211 208 207 205 202 199 198 197 193 190 187 183 182 186 191 194 189 180 181 198 217 230 226 167 210 264 271 278 275 274 280 286 292
230 230 226 220 215 212 209 206 203 198 196 196 194 191 188 186 185 186 187 192 189 184 182 186 202 218 241 272 261 183 204 258 273 280 286 287 284 279
232 233 229 223 216 212 208 204 200 197 194 193 193 190 187 186 186 188 185 180 189 188 192 191 167 183 231 240 241 232 208 192 243 277 295 294 292 286
240 235 231 226 218 211 205 200 199 196 194 194 191 188 187 187 186 186 184 181 188 193 193 172 157 185 213 231 250 261 260 242 210 215 235 255 281 296
247 240 235 228 220 210 203 202 199 196 193 192 188 186 185 185 184 183 183 183 183 185 183 180 182 197 217 233 252 264 272 277 279 271 252 221 227 247